Location: Ravensburg
(47.7866°N, 9.6124°E)
Time: 09:51:37
(UTC+02:00)

METEOR M2 - Pass Details

Date: 14 March 2026
Orbit: 817 x 824 km, 98.5° (Epoch: 18 April)

Event Time Altitude Azimuth Distance (km) Brightness Sun altitude
Rises 06:00:30 0° 6° (N) 3,373 ? -7.0°
Reaches altitude 10° 06:03:08 10° 355° (N) 2,436 ? -6.5°
Maximum altitude 06:07:40 28° 298° (WNW) 1,498 ? -5.8°
Drops below altitude 10° 06:12:10 10° 241° (WSW) 2,422 ? -5.0°
Sets 06:14:47 0° 230° (SW) 3,350 ? -4.6°
